TimeMDT,TemperatureF,Dew PointF,Humidity,Sea Level PressureIn,VisibilityMPH,Wind Direction,Wind SpeedMPH,Gust SpeedMPH,PrecipitationIn,Events,Conditions,WindDirDegrees,DateUTC
12:15 AM,47.7,40.1,75,30.00,10.0,ENE,8.1,-,N/A,,Clear,60,2014-04-11 06:15:00
12:35 AM,46.0,40.1,80,30.00,10.0,ENE,5.8,-,N/A,,Clear,70,2014-04-11 06:35:00
12:55 AM,45.3,39.9,81,30.00,10.0,ENE,4.6,-,N/A,,Clear,70,2014-04-11 06:55:00
1:15 AM,43.3,38.5,83,30.00,10.0,NE,4.6,-,N/A,,Clear,50,2014-04-11 07:15:00
1:35 AM,42.6,38.3,85,30.00,10.0,ENE,3.5,-,N/A,,Clear,60,2014-04-11 07:35:00
1:55 AM,40.8,36.7,85,30.00,10.0,Calm,Calm,-,N/A,,Clear,0,2014-04-11 07:55:00
2:15 AM,40.8,37.6,88,30.00,10.0,Calm,Calm,-,N/A,,Clear,0,2014-04-11 08:15:00
2:35 AM,39.9,36.3,87,30.00,10.0,Calm,Calm,-,N/A,,Clear,0,2014-04-11 08:35:00
2:55 AM,39.4,36.3,89,30.00,10.0,Calm,Calm,-,N/A,,Clear,0,2014-04-11 08:55:00
3:15 AM,39.2,36.1,89,30.00,10.0,Calm,Calm,-,N/A,,Clear,0,2014-04-11 09:15:00
3:35 AM,37.4,34.5,89,30.00,10.0,Calm,Calm,-,N/A,,Clear,0,2014-04-11 09:35:00
3:55 AM,35.6,33.1,91,30.00,10.0,Calm,Calm,-,N/A,,Clear,0,2014-04-11 09:55:00
4:15 AM,35.6,33.4,92,30.01,10.0,Calm,Calm,-,N/A,,Clear,0,2014-04-11 10:15:00
4:35 AM,36.1,33.4,90,30.01,10.0,Calm,Calm,-,N/A,,Clear,0,2014-04-11 10:35:00
4:55 AM,35.2,32.9,91,30.01,10.0,Calm,Calm,-,N/A,,Clear,0,2014-04-11 10:55:00
5:15 AM,35.4,32.2,88,30.00,10.0,Calm,Calm,-,N/A,,Clear,0,2014-04-11 11:15:00
5:35 AM,34.7,31.3,87,30.00,10.0,Calm,Calm,-,N/A,,Clear,0,2014-04-11 11:35:00
5:55 AM,33.1,31.6,94,30.01,10.0,Calm,Calm,-,N/A,,Clear,0,2014-04-11 11:55:00
6:15 AM,31.6,29.8,93,30.01,0.5,Calm,Calm,-,N/A,Fog,Light Freezing Fog,0,2014-04-11 12:15:00
6:35 AM,32.2,31.1,96,30.02,7.0,Calm,Calm,-,N/A,,Clear,0,2014-04-11 12:35:00
6:55 AM,31.5,29.8,94,30.02,7.0,Calm,Calm,-,N/A,,Clear,0,2014-04-11 12:55:00
7:15 AM,32.5,31.3,95,30.02,10.0,WSW,3.5,-,N/A,,Clear,250,2014-04-11 13:15:00
7:35 AM,36.0,33.8,92,30.03,10.0,West,3.5,-,N/A,,Clear,280,2014-04-11 13:35:00
8:15 AM,41.4,36.1,82,30.04,10.0,Calm,Calm,-,N/A,,Clear,0,2014-04-11 14:15:00
8:35 AM,44.1,37.2,77,30.04,10.0,Calm,Calm,-,N/A,,Clear,0,2014-04-11 14:35:00
8:55 AM,46.9,37.9,71,30.03,10.0,Calm,Calm,-,N/A,,Clear,0,2014-04-11 14:55:00
9:15 AM,49.3,37.4,64,30.04,10.0,Calm,Calm,-,N/A,,Clear,0,2014-04-11 15:15:00
9:35 AM,51.8,37.4,58,30.03,10.0,Calm,Calm,-,N/A,,Clear,0,2014-04-11 15:35:00
9:55 AM,54.0,37.6,54,30.02,10.0,Calm,Calm,-,N/A,,Clear,0,2014-04-11 15:55:00
10:15 AM,57.4,37.4,47,30.02,10.0,Calm,Calm,-,N/A,,Clear,0,2014-04-11 16:15:00
10:35 AM,59.2,36.5,43,30.02,10.0,Calm,Calm,-,N/A,,Clear,0,2014-04-11 16:35:00
10:55 AM,61.3,32.9,34,30.01,10.0,Calm,Calm,-,N/A,,Clear,0,2014-04-11 16:55:00
11:15 AM,64.0,29.7,27,30.00,10.0,East,4.6,-,N/A,,Clear,100,2014-04-11 17:15:00
11:35 AM,65.7,26.4,23,29.99,10.0,East,11.5,-,N/A,,Clear,90,2014-04-11 17:35:00
11:55 AM,66.7,24.4,20,29.97,10.0,ESE,5.8,-,N/A,,Clear,120,2014-04-11 17:55:00
12:15 PM,67.6,24.3,19,29.96,10.0,ESE,4.6,-,N/A,,Clear,120,2014-04-11 18:15:00
12:35 PM,68.0,23.2,18,29.95,10.0,East,4.6,-,N/A,,Clear,90,2014-04-11 18:35:00
12:55 PM,68.9,24.1,18,29.94,10.0,ESE,8.1,-,N/A,,Clear,120,2014-04-11 18:55:00
1:15 PM,69.3,22.8,17,29.93,10.0,SE,5.8,-,N/A,,Clear,140,2014-04-11 19:15:00
1:35 PM,71.1,21.7,16,29.91,10.0,SE,6.9,-,N/A,,Clear,130,2014-04-11 19:35:00
1:55 PM,72.0,24.4,17,29.90,10.0,South,8.1,-,N/A,,Clear,170,2014-04-11 19:55:00
2:15 PM,72.0,25.2,17,29.88,10.0,SSW,9.2,-,N/A,,Clear,200,2014-04-11 20:15:00
2:35 PM,72.5,24.3,16,29.88,10.0,SSW,8.1,-,N/A,,Clear,210,2014-04-11 20:35:00
2:55 PM,72.0,24.6,17,29.86,10.0,SW,3.5,-,N/A,,Clear,220,2014-04-11 20:55:00
3:15 PM,73.4,21.9,14,29.85,10.0,SW,5.8,-,N/A,,Clear,220,2014-04-11 21:15:00
3:35 PM,72.7,24.4,16,29.84,10.0,SW,5.8,-,N/A,,Clear,220,2014-04-11 21:35:00
3:55 PM,73.6,26.2,17,29.82,10.0,South,6.9,-,N/A,,Clear,190,2014-04-11 21:55:00
4:15 PM,73.6,28.6,19,29.81,10.0,South,8.1,-,N/A,,Clear,180,2014-04-11 22:15:00
4:35 PM,74.3,29.7,19,29.79,10.0,ESE,5.8,-,N/A,,Clear,120,2014-04-11 22:35:00
4:55 PM,76.5,25.9,15,29.78,10.0,SSW,12.7,-,N/A,,Clear,210,2014-04-11 22:55:00
5:15 PM,76.1,25.3,15,29.77,10.0,SSW,10.4,21.9,N/A,,Clear,210,2014-04-11 23:15:00
5:35 PM,76.3,26.6,16,29.76,7.0,SSW,13.8,19.6,N/A,,Clear,210,2014-04-11 23:35:00
5:55 PM,76.5,24.8,15,29.75,10.0,SSW,11.5,18.4,N/A,,Clear,210,2014-04-11 23:55:00
6:15 PM,76.3,25.9,15,29.75,10.0,SW,12.7,17.3,N/A,,Clear,220,2014-04-12 00:15:00
6:35 PM,75.9,28.2,17,29.75,10.0,SW,6.9,-,N/A,,Clear,220,2014-04-12 00:35:00
6:55 PM,73.9,30.6,20,29.74,10.0,South,5.8,-,N/A,,Clear,190,2014-04-12 00:55:00
7:15 PM,70.7,32.0,24,29.74,10.0,South,5.8,-,N/A,,Clear,180,2014-04-12 01:15:00
7:35 PM,68.9,32.9,26,29.73,10.0,SSE,4.6,-,N/A,,Clear,160,2014-04-12 01:35:00
7:55 PM,65.7,33.8,31,29.73,10.0,South,3.5,-,N/A,,Clear,170,2014-04-12 01:55:00
8:15 PM,63.9,33.3,32,29.73,10.0,South,4.6,-,N/A,,Clear,170,2014-04-12 02:15:00
8:35 PM,62.1,33.4,34,29.73,10.0,ESE,3.5,-,N/A,,Clear,120,2014-04-12 02:35:00
8:55 PM,60.3,34.5,38,29.73,10.0,SSE,6.9,-,N/A,,Clear,160,2014-04-12 02:55:00
9:15 PM,63.7,33.3,32,29.72,10.0,South,11.5,17.3,N/A,,Clear,180,2014-04-12 03:15:00
9:35 PM,62.2,32.9,33,29.72,10.0,South,12.7,18.4,N/A,,Clear,190,2014-04-12 03:35:00
9:55 PM,62.6,32.0,32,29.71,10.0,South,17.3,21.9,N/A,,Clear,190,2014-04-12 03:55:00
10:15 PM,63.5,32.0,31,29.70,10.0,South,17.3,24.2,N/A,,Clear,190,2014-04-12 04:15:00
10:35 PM,62.6,31.8,32,29.69,10.0,South,19.6,25.3,N/A,,Clear,190,2014-04-12 04:35:00
10:55 PM,62.4,31.8,32,29.69,10.0,South,18.4,25.3,N/A,,Clear,190,2014-04-12 04:55:00
11:15 PM,63.0,31.8,31,29.68,10.0,SSW,20.7,28.8,N/A,,Clear,200,2014-04-12 05:15:00
11:35 PM,62.2,31.5,31,29.68,10.0,SSW,23.0,27.6,N/A,,Clear,200,2014-04-12 05:35:00
11:55 PM,61.7,31.6,32,29.68,10.0,SSW,19.6,26.5,N/A,,Clear,200,2014-04-12 05:55:00